When you browse on this site, cookies collect data to enhance your experience and personalize the content and advertising you see.
Visit our Privacy Policy to learn more. By continuing to use the site, you agree to this use of cookies and data.
  • In Österreich
  • Länderverzeichnis
  • Für 7 Tage
  • Wassertemperatur
  • Satellitenkarten
  • Wetterkarte
  • News
  • Widgets
  • user-avatar
    Anmelden

    Stündliche Wetter Kalinovka

    Heute, 23 April, Dienstag

    Zeit Temperatur Niederschläge Wind Luftdruck Luftfeuchtigkeit
    00:00 +9°C° 0 mm 1 m/S 744 mmHg 60%
    01:00 +9°C° 0 mm 1 m/S 744 mmHg 59%
    02:00 +8°C° 0 mm 2 m/S 744 mmHg 58%
    03:00 +8°C° 0 mm 2 m/S 744 mmHg 58%
    04:00 +8°C° 0 mm 2 m/S 745 mmHg 58%
    05:00 +8°C° 0 mm 2 m/S 745 mmHg 58%
    06:00 +9°C° 0 mm 3 m/S 745 mmHg 56%
    07:00 +10°C° 0 mm 3 m/S 745 mmHg 54%
    08:00 +12°C° 0 mm 4 m/S 745 mmHg 52%
    09:00 +13°C° 0 mm 4 m/S 745 mmHg 47%
    10:00 +14°C° 0 mm 5 m/S 746 mmHg 42%
    11:00 +15°C° 0 mm 5 m/S 746 mmHg 38%
    12:00 +15°C° 0 mm 5 m/S 746 mmHg 38%
    13:00 +15°C° 0 mm 5 m/S 745 mmHg 38%
    14:00 +15°C° 0 mm 5 m/S 745 mmHg 39%
    15:00 +15°C° 0 mm 5 m/S 745 mmHg 40%
    16:00 +15°C° 0 mm 5 m/S 745 mmHg 42%
    17:00 +15°C° 0 mm 5 m/S 744 mmHg 43%
    18:00 +13°C° 0 mm 4 m/S 744 mmHg 48%
    19:00 +12°C° 0 mm 4 m/S 744 mmHg 52%
    20:00 +11°C° 0 mm 3 m/S 744 mmHg 57%
    21:00 +10°C° 0 mm 3 m/S 744 mmHg 58%
    22:00 +9°C° 0 mm 3 m/S 745 mmHg 58%
    23:00 +9°C° 0 mm 3 m/S 745 mmHg 59%

    Morgen, 24 April, Mittwoch

    Zeit Temperatur Niederschläge Wind Luftdruck Luftfeuchtigkeit
    00:00 +8°C° 0 mm 3 m/S 745 mmHg 61%
    01:00 +8°C° 0 mm 3 m/S 745 mmHg 64%
    02:00 +7°C° 0 mm 3 m/S 745 mmHg 66%
    03:00 +7°C° 0 mm 3 m/S 745 mmHg 67%
    04:00 +5°C° 0 mm 3 m/S 745 mmHg 68%
    05:00 +5°C° 0 mm 3 m/S 744 mmHg 68%
    06:00 +7°C° 0 mm 4 m/S 745 mmHg 64%
    07:00 +9°C° 0 mm 5 m/S 745 mmHg 59%
    08:00 +10°C° 0 mm 5 m/S 745 mmHg 54%
    09:00 +11°C° 0 mm 6 m/S 745 mmHg 50%
    10:00 +14°C° 0 mm 6 m/S 745 mmHg 47%
    11:00 +15°C° 0 mm 7 m/S 745 mmHg 43%
    12:00 +15°C° 0 mm 7 m/S 745 mmHg 42%
    13:00 +16°C° 0 mm 7 m/S 745 mmHg 40%
    14:00 +16°C° 0 mm 6 m/S 745 mmHg 39%
    15:00 +16°C° 0 mm 6 m/S 745 mmHg 41%
    16:00 +16°C° 0 mm 6 m/S 744 mmHg 43%
    17:00 +16°C° 0 mm 5 m/S 744 mmHg 45%
    18:00 +14°C° 0 mm 5 m/S 744 mmHg 50%
    19:00 +13°C° 0 mm 4 m/S 744 mmHg 56%
    20:00 +11°C° 0 mm 3 m/S 744 mmHg 61%
    21:00 +11°C° 0 mm 3 m/S 744 mmHg 63%
    22:00 +10°C° 0 mm 3 m/S 744 mmHg 65%
    23:00 +10°C° 0 mm 3 m/S 744 mmHg 66%

    übermorgen, 25 April, Donnerstag

    Zeit Temperatur Niederschläge Wind Luftdruck Luftfeuchtigkeit
    00:00 +9°C° 0 mm 3 m/S 744 mmHg 68%
    01:00 +9°C° 0 mm 3 m/S 744 mmHg 69%
    02:00 +8°C° 0 mm 3 m/S 744 mmHg 70%
    03:00 +8°C° 0 mm 3 m/S 744 mmHg 71%
    04:00 +7°C° 0 mm 3 m/S 744 mmHg 73%
    05:00 +7°C° 0 mm 3 m/S 744 mmHg 74%
    06:00 +8°C° 0 mm 4 m/S 745 mmHg 70%
    07:00 +10°C° 0 mm 4 m/S 745 mmHg 65%
    08:00 +12°C° 0 mm 5 m/S 745 mmHg 61%
    09:00 +13°C° 0 mm 5 m/S 745 mmHg 57%
    10:00 +15°C° 0 mm 5 m/S 745 mmHg 53%
    11:00 +16°C° 0 mm 6 m/S 745 mmHg 48%
    12:00 +17°C° 0 mm 6 m/S 745 mmHg 47%
    13:00 +19°C° 0 mm 6 m/S 744 mmHg 45%
    14:00 +19°C° 0 mm 6 m/S 744 mmHg 43%
    15:00 +19°C° 0 mm 5 m/S 744 mmHg 45%
    16:00 +19°C° 0 mm 5 m/S 743 mmHg 46%
    17:00 +19°C° 0 mm 5 m/S 743 mmHg 47%
    18:00 +17°C° 0 mm 4 m/S 743 mmHg 52%
    19:00 +14°C° 0 mm 4 m/S 743 mmHg 57%
    20:00 +13°C° 0 mm 3 m/S 742 mmHg 63%
    21:00 +12°C° 0 mm 3 m/S 742 mmHg 64%
    22:00 +12°C° 0 mm 3 m/S 742 mmHg 65%
    23:00 +11°C° 0 mm 3 m/S 742 mmHg 66%

    26 April, Freitag

    Zeit Temperatur Niederschläge Wind Luftdruck Luftfeuchtigkeit
    00:00 +11°C° 0 mm 3 m/S 742 mmHg 68%
    01:00 +10°C° 0 mm 3 m/S 742 mmHg 70%
    02:00 +10°C° 0 mm 3 m/S 742 mmHg 72%
    03:00 +9°C° 0 mm 3 m/S 742 mmHg 73%
    04:00 +9°C° 0 mm 3 m/S 742 mmHg 75%
    05:00 +8°C° 0 mm 3 m/S 741 mmHg 76%
    06:00 +10°C° 0 mm 4 m/S 741 mmHg 70%
    07:00 +11°C° 0 mm 4 m/S 742 mmHg 64%
    08:00 +12°C° 0 mm 5 m/S 742 mmHg 58%
    09:00 +14°C° 0 mm 5 m/S 741 mmHg 53%
    10:00 +15°C° 0 mm 6 m/S 741 mmHg 49%
    11:00 +17°C° 0 mm 6 m/S 741 mmHg 44%
    12:00 +19°C° 0 mm 6 m/S 741 mmHg 44%
    13:00 +19°C° 0 mm 6 m/S 741 mmHg 43%
    14:00 +20°C° 0 mm 6 m/S 740 mmHg 42%
    15:00 +20°C° 0 mm 6 m/S 740 mmHg 44%
    16:00 +20°C° 0 mm 5 m/S 740 mmHg 46%
    17:00 +19°C° 0 mm 5 m/S 739 mmHg 47%
    18:00 +17°C° 0 mm 5 m/S 739 mmHg 51%
    19:00 +15°C° 0 mm 4 m/S 739 mmHg 55%
    20:00 +14°C° 0 mm 4 m/S 739 mmHg 59%
    21:00 +13°C° 0 mm 4 m/S 739 mmHg 60%
    22:00 +13°C° 0 mm 4 m/S 739 mmHg 60%
    23:00 +12°C° 0 mm 4 m/S 739 mmHg 60%

    27 April, Samstag

    Zeit Temperatur Niederschläge Wind Luftdruck Luftfeuchtigkeit
    00:00 +12°C° 0 mm 4 m/S 738 mmHg 61%
    01:00 +11°C° 0 mm 4 m/S 738 mmHg 62%
    02:00 +11°C° 0 mm 4 m/S 738 mmHg 63%
    03:00 +11°C° 0 mm 4 m/S 738 mmHg 65%
    04:00 +10°C° 0 mm 4 m/S 738 mmHg 67%
    05:00 +8°C° 0 mm 4 m/S 738 mmHg 69%
    06:00 +11°C° 0 mm 4 m/S 738 mmHg 65%
    07:00 +12°C° 0 mm 5 m/S 738 mmHg 60%
    08:00 +14°C° 0 mm 6 m/S 738 mmHg 56%
    09:00 +15°C° 0 mm 6 m/S 738 mmHg 53%
    10:00 +17°C° 0 mm 6 m/S 738 mmHg 50%
    11:00 +18°C° 0 mm 7 m/S 737 mmHg 47%
    12:00 +20°C° 0 mm 7 m/S 737 mmHg 47%
    13:00 +21°C° 0 mm 7 m/S 737 mmHg 47%
    14:00 +21°C° 0 mm 7 m/S 736 mmHg 46%
    15:00 +21°C° 0 mm 6 m/S 736 mmHg 48%
    16:00 +21°C° 0 mm 6 m/S 736 mmHg 49%
    17:00 +20°C° 0 mm 6 m/S 735 mmHg 50%
    18:00 +19°C° 0 mm 5 m/S 735 mmHg 54%
    19:00 +17°C° 0 mm 4 m/S 735 mmHg 59%
    20:00 +15°C° 0 mm 4 m/S 735 mmHg 63%
    21:00 +14°C° 0 mm 4 m/S 735 mmHg 66%
    22:00 +14°C° 0 mm 4 m/S 735 mmHg 68%
    23:00 +13°C° 0 mm 4 m/S 735 mmHg 71%

    28 April, Sonntag

    Zeit Temperatur Niederschläge Wind Luftdruck Luftfeuchtigkeit
    00:00 +13°C° 0 mm 4 m/S 735 mmHg 72%
    01:00 +12°C° 0 mm 4 m/S 735 mmHg 74%
    02:00 +11°C° 0 mm 4 m/S 735 mmHg 75%
    03:00 +11°C° 0 mm 4 m/S 734 mmHg 75%
    04:00 +10°C° 0 mm 4 m/S 734 mmHg 76%
    05:00 +10°C° 0 mm 4 m/S 734 mmHg 76%
    06:00 +11°C° 0 mm 4 m/S 734 mmHg 71%
    07:00 +12°C° 0 mm 4 m/S 735 mmHg 67%
    08:00 +14°C° 0 mm 5 m/S 735 mmHg 62%
    09:00 +15°C° 0 mm 5 m/S 735 mmHg 62%
    10:00 +16°C° 0 mm 5 m/S 735 mmHg 61%
    11:00 +17°C° 0 mm 5 m/S 736 mmHg 60%
    12:00 +18°C° 0 mm 4 m/S 735 mmHg 61%
    13:00 +18°C° 0 mm 4 m/S 735 mmHg 62%
    14:00 +18°C° 0 mm 3 m/S 735 mmHg 63%
    15:00 +18°C° 0 mm 2 m/S 735 mmHg 62%
    16:00 +18°C° 0 mm 2 m/S 735 mmHg 61%
    17:00 +20°C° 0 mm 1 m/S 735 mmHg 61%
    18:00 +18°C° 0 mm 1 m/S 735 mmHg 65%
    19:00 +16°C° 0 mm 1 m/S 735 mmHg 70%
    20:00 +15°C° 0 mm 1 m/S 735 mmHg 75%
    21:00 +14°C° 0 mm 1 m/S 736 mmHg 79%
    22:00 +14°C° 0 mm 2 m/S 736 mmHg 82%
    23:00 +13°C° 0 mm 2 m/S 736 mmHg 85%
    Mehr zeigen